Location: *
(45.4590°N, 16.3650°E)
Time: 21:35:10
(UTC+00:00)

Cosmos-2242 - Pass Details

Date: 17 January 2020
Orbit: 590 x 618 km, 82.5° (Epoch: 25 February)

Event Time Altitude Azimuth Distance (km) Brightness Sun altitude
Rises 17:35:13 0° 355° (N) 2,886 6.5 -19.9°
Reaches altitude 10° 17:37:30 10° 360° (N) 1,972 5.5 -20.3°
Enters shadow 17:40:38 41° 27° (NNE) 886 3.5 -20.8°
